Tracking 22223 objects as of 26-Jan-2021
HD Live streaming from Space Station
objects crossing your sky now

ABS 3

Track ABS 3 now!
ABS 3 is classified as:


NORAD ID: 24901
Int'l Code: 1997-042A
Perigee: 36,059.9 km
Apogee: 36,098.9 km
Inclination: 7.3 °
Period: 1,450.7 minutes
Semi major axis: 42450 km
RCS: 10 m2 (large)
Launch date: August 19, 1997
Source: People's Republic of China (PRC)
Launch site: Xichang Space Center, China (XSC)

Most powerful telecommunications satellite in service in the Asia-Pacific region; 30 C-band, 24 Ku-band transponders; 190 high fidelity channels and 50,000 simultaneous telephone links.
aabbcc
Your satellite tracking list
Your tracking list is empty




NASA's NSSDC Master Catalog

Two Line Element Set (TLE):
1 24901U 97042A   21025.88845437 -.00000267  00000-0  00000-0 0  9991
2 24901   7.3078  56.5091 0004595 247.9331 265.1776  0.99261331 85697
Source of the keplerian elements: AFSPC